Time,TemperatureF,DewpointF,PressureIn,WindDirection,WindDirectionDegrees,WindSpeedMPH,WindSpeedGustMPH,Humidity,HourlyPrecipIn,Conditions,Clouds,dailyrainin,SolarRadiationWatts/m^2,SoftwareType,DateUTC
2013-04-14 00:00:00,58.5,54.3,30.00,NE,45,0.0,0.0,86,0.00,,,0.00,0.0,meteohub,2013-04-14 04:00:00,
2013-04-14 00:02:00,58.5,54.3,30.01,NE,45,0.0,0.0,86,0.00,,,0.00,0.0,meteohub,2013-04-14 04:02:00,
2013-04-14 00:03:00,58.5,54.3,30.01,NE,45,0.0,0.0,86,0.00,,,0.00,0.0,meteohub,2013-04-14 04:03:00,
2013-04-14 00:07:00,58.5,54.3,30.01,NE,45,0.0,0.0,86,0.00,,,0.00,0.0,meteohub,2013-04-14 04:07:00,
2013-04-14 00:12:00,58.3,54.1,30.01,NE,45,0.0,0.0,86,0.00,,,0.00,0.0,meteohub,2013-04-14 04:12:00,
2013-04-14 00:17:00,58.3,54.1,30.01,NE,45,0.0,0.0,86,0.00,,,0.00,0.0,meteohub,2013-04-14 04:17:00,
2013-04-14 00:25:00,58.3,54.5,30.01,NE,45,0.0,0.0,87,0.00,,,0.00,0.0,meteohub,2013-04-14 04:25:00,
2013-04-14 00:31:00,58.1,54.5,30.01,NE,45,0.0,0.0,88,0.00,,,0.00,0.0,meteohub,2013-04-14 04:31:00,
2013-04-14 00:37:00,57.9,54.3,30.01,NE,45,0.0,0.0,88,0.00,,,0.00,0.0,meteohub,2013-04-14 04:37:00,
2013-04-14 00:43:00,57.9,54.3,30.00,NE,45,0.0,0.0,88,0.00,,,0.00,0.0,meteohub,2013-04-14 04:43:00,
2013-04-14 00:49:00,57.7,54.1,30.00,NE,45,0.0,0.0,88,0.00,,,0.00,0.0,meteohub,2013-04-14 04:49:00,
2013-04-14 00:55:00,57.7,54.1,30.00,NE,45,0.0,0.0,88,0.00,,,0.00,0.0,meteohub,2013-04-14 04:55:00,
2013-04-14 01:02:00,57.6,54.0,30.01,NE,45,0.0,0.0,88,0.00,,,0.00,0.0,meteohub,2013-04-14 05:02:00,
2013-04-14 01:08:00,57.4,53.8,30.00,NE,45,0.0,0.0,88,0.00,,,0.00,0.0,meteohub,2013-04-14 05:08:00,
2013-04-14 01:14:00,57.2,53.6,30.00,NE,45,0.0,0.0,88,0.00,,,0.00,0.0,meteohub,2013-04-14 05:14:00,
2013-04-14 01:20:00,57.0,53.8,30.01,NE,45,0.0,0.0,89,0.00,,,0.00,0.0,meteohub,2013-04-14 05:20:00,
2013-04-14 01:27:00,56.8,53.6,30.01,NE,45,0.0,0.0,89,0.00,,,0.00,0.0,meteohub,2013-04-14 05:27:00,
2013-04-14 01:32:00,56.7,53.1,30.00,NE,45,0.0,0.0,88,0.00,,,0.00,0.0,meteohub,2013-04-14 05:32:00,
2013-04-14 01:39:00,56.5,52.9,30.00,NE,45,0.0,0.0,88,0.00,,,0.00,0.0,meteohub,2013-04-14 05:39:00,
2013-04-14 01:45:00,56.1,52.7,30.00,NE,45,0.0,0.0,88,0.00,,,0.00,0.0,meteohub,2013-04-14 05:45:00,
2013-04-14 01:52:00,56.1,52.7,30.00,NE,45,0.0,0.0,88,0.00,,,0.00,0.0,meteohub,2013-04-14 05:52:00,
2013-04-14 01:57:00,55.9,52.5,30.00,NE,45,0.0,0.0,88,0.00,,,0.00,0.0,meteohub,2013-04-14 05:57:00,
2013-04-14 02:04:00,55.8,52.3,29.99,NE,45,0.0,0.0,88,0.00,,,0.00,0.0,meteohub,2013-04-14 06:04:00,
2013-04-14 02:10:00,55.6,52.3,29.99,NE,45,0.0,0.0,89,0.00,,,0.00,0.0,meteohub,2013-04-14 06:10:00,
2013-04-14 02:16:00,55.6,52.3,29.99,NE,45,0.0,0.0,89,0.00,,,0.00,0.0,meteohub,2013-04-14 06:16:00,
2013-04-14 02:22:00,55.2,52.3,29.99,NE,45,0.0,0.0,90,0.00,,,0.00,0.0,meteohub,2013-04-14 06:22:00,
2013-04-14 02:27:00,55.2,52.3,29.99,NE,45,0.0,0.0,90,0.00,,,0.00,0.0,meteohub,2013-04-14 06:27:00,
2013-04-14 02:32:00,55.0,52.2,29.99,NE,45,0.0,0.0,90,0.00,,,0.00,0.0,meteohub,2013-04-14 06:32:00,
2013-04-14 02:38:00,54.9,52.0,29.99,NE,45,0.0,0.0,90,0.00,,,0.00,0.0,meteohub,2013-04-14 06:38:00,
2013-04-14 02:44:00,54.9,52.0,29.99,NE,45,0.0,0.0,90,0.00,,,0.00,0.0,meteohub,2013-04-14 06:44:00,
2013-04-14 02:50:00,54.7,51.8,29.98,NE,45,0.0,0.0,90,0.00,,,0.00,0.0,meteohub,2013-04-14 06:50:00,
2013-04-14 02:57:00,54.7,51.8,29.98,NE,45,0.0,0.0,90,0.00,,,0.00,0.0,meteohub,2013-04-14 06:57:00,
2013-04-14 03:02:00,54.5,51.6,29.98,NE,45,0.0,0.0,90,0.00,,,0.00,0.0,meteohub,2013-04-14 07:02:00,
2013-04-14 03:09:00,54.5,52.0,29.98,NE,45,0.0,0.0,91,0.00,,,0.00,0.0,meteohub,2013-04-14 07:09:00,
2013-04-14 03:15:00,54.3,51.8,29.98,NE,45,0.0,0.0,91,0.00,,,0.00,0.0,meteohub,2013-04-14 07:15:00,
2013-04-14 03:22:00,54.7,52.3,29.97,NE,45,0.0,0.0,92,0.00,,,0.00,0.0,meteohub,2013-04-14 07:22:00,
2013-04-14 03:27:00,54.9,52.5,29.96,NE,45,0.0,0.0,92,0.00,,,0.00,0.0,meteohub,2013-04-14 07:27:00,
2013-04-14 03:34:00,54.9,52.5,29.96,NE,45,0.0,0.0,92,0.00,,,0.00,0.0,meteohub,2013-04-14 07:34:00,
2013-04-14 03:40:00,55.0,53.1,29.96,NE,45,0.0,0.0,93,0.00,,,0.00,0.0,meteohub,2013-04-14 07:40:00,
2013-04-14 03:46:00,55.0,53.1,29.97,NE,45,0.0,0.0,93,0.00,,,0.00,0.0,meteohub,2013-04-14 07:46:00,
2013-04-14 03:52:00,55.0,53.1,29.97,NE,45,0.0,0.0,93,0.00,,,0.00,0.0,meteohub,2013-04-14 07:52:00,
2013-04-14 03:59:00,55.2,53.2,29.97,NE,45,0.0,1.0,93,0.00,,,0.00,0.0,meteohub,2013-04-14 07:59:00,
2013-04-14 04:05:00,55.6,54.0,29.97,NE,45,0.0,0.0,94,0.00,,,0.00,0.0,meteohub,2013-04-14 08:05:00,
2013-04-14 04:11:00,55.6,54.0,29.97,NE,45,0.0,0.0,94,0.00,,,0.00,0.0,meteohub,2013-04-14 08:11:00,
2013-04-14 04:17:00,55.8,54.1,29.97,NE,45,0.0,0.0,94,0.00,,,0.00,0.0,meteohub,2013-04-14 08:17:00,
2013-04-14 04:22:00,55.9,54.3,29.98,NE,45,0.0,0.0,94,0.00,,,0.00,0.0,meteohub,2013-04-14 08:22:00,
2013-04-14 04:30:00,55.9,54.3,29.97,NE,45,0.0,0.0,94,0.00,,,0.00,0.0,meteohub,2013-04-14 08:30:00,
2013-04-14 04:36:00,56.1,54.5,29.97,NE,45,0.0,0.0,94,0.00,,,0.00,0.0,meteohub,2013-04-14 08:36:00,
2013-04-14 04:42:00,56.1,54.5,29.98,NE,45,0.0,0.0,94,0.00,,,0.00,0.0,meteohub,2013-04-14 08:42:00,
2013-04-14 04:47:00,56.1,54.5,29.98,NE,45,0.0,0.0,94,0.00,,,0.00,0.0,meteohub,2013-04-14 08:47:00,
2013-04-14 04:52:00,56.1,54.5,29.98,NE,45,0.0,0.0,94,0.00,,,0.00,0.0,meteohub,2013-04-14 08:52:00,
2013-04-14 04:57:00,56.1,54.5,29.97,NE,45,0.0,0.0,94,0.00,,,0.00,0.0,meteohub,2013-04-14 08:57:00,
2013-04-14 05:02:00,56.1,54.5,29.98,NE,45,0.0,0.0,94,0.00,,,0.00,0.0,meteohub,2013-04-14 09:02:00,
2013-04-14 05:07:00,56.3,54.7,29.97,NE,45,0.0,0.0,94,0.00,,,0.00,0.0,meteohub,2013-04-14 09:07:00,
2013-04-14 05:13:00,56.3,54.7,29.97,NE,45,0.0,0.0,94,0.00,,,0.00,0.0,meteohub,2013-04-14 09:13:00,
2013-04-14 05:19:00,56.1,54.5,29.97,NE,45,0.0,0.0,94,0.00,,,0.00,0.0,meteohub,2013-04-14 09:19:00,
2013-04-14 05:26:00,56.1,54.5,29.98,NE,45,0.0,0.0,94,0.00,,,0.00,0.0,meteohub,2013-04-14 09:26:00,
2013-04-14 05:32:00,56.1,54.5,29.98,NE,45,0.0,0.0,94,0.00,,,0.00,0.0,meteohub,2013-04-14 09:32:00,
2013-04-14 05:38:00,55.9,54.3,29.98,NE,45,0.0,0.0,94,0.00,,,0.00,0.0,meteohub,2013-04-14 09:38:00,
2013-04-14 05:44:00,55.8,54.1,29.97,NE,45,0.0,0.0,94,0.00,,,0.00,0.0,meteohub,2013-04-14 09:44:00,
2013-04-14 05:51:00,55.8,54.1,29.97,NE,46,0.0,0.0,94,0.00,,,0.00,0.0,meteohub,2013-04-14 09:51:00,
2013-04-14 05:57:00,55.6,54.0,29.98,NE,45,0.0,0.0,94,0.00,,,0.00,0.0,meteohub,2013-04-14 09:57:00,
2013-04-14 06:02:00,55.6,54.0,29.97,NE,45,0.0,0.0,94,0.00,,,0.00,0.0,meteohub,2013-04-14 10:02:00,
2013-04-14 06:07:00,55.6,54.0,29.98,NE,46,0.0,0.0,94,0.00,,,0.00,0.0,meteohub,2013-04-14 10:07:00,
2013-04-14 06:12:00,55.2,53.6,29.97,NE,45,0.0,0.0,94,0.00,,,0.00,0.0,meteohub,2013-04-14 10:12:00,
2013-04-14 06:19:00,55.2,53.6,29.98,NE,45,0.0,0.0,94,0.00,,,0.00,0.0,meteohub,2013-04-14 10:19:00,
2013-04-14 06:25:00,55.0,53.6,29.98,NE,45,0.0,0.0,95,0.00,,,0.00,0.0,meteohub,2013-04-14 10:25:00,
2013-04-14 06:32:00,55.0,53.6,29.98,NE,45,0.0,0.0,95,0.00,,,0.00,0.0,meteohub,2013-04-14 10:32:00,
2013-04-14 06:37:00,55.0,53.6,29.97,NE,45,0.0,0.0,95,0.00,,,0.00,0.0,meteohub,2013-04-14 10:37:00,
2013-04-14 06:43:00,55.0,53.6,29.97,NE,45,0.0,0.0,95,0.00,,,0.00,0.0,meteohub,2013-04-14 10:43:00,
2013-04-14 06:50:00,55.0,53.6,29.96,NE,45,0.0,0.0,95,0.00,,,0.00,0.0,meteohub,2013-04-14 10:50:00,
2013-04-14 06:56:00,55.2,53.8,29.97,NE,45,0.0,0.0,95,0.00,,,0.00,0.0,meteohub,2013-04-14 10:56:00,
2013-04-14 07:02:00,55.4,54.0,29.97,NE,45,0.0,0.0,95,0.00,,,0.00,0.0,meteohub,2013-04-14 11:02:00,
2013-04-14 07:07:00,55.8,54.3,29.97,NE,45,0.0,0.0,95,0.00,,,0.00,0.0,meteohub,2013-04-14 11:07:00,
2013-04-14 07:12:00,55.9,54.5,29.98,NE,45,0.0,1.0,95,0.00,,,0.00,7.0,meteohub,2013-04-14 11:12:00,
2013-04-14 07:17:00,55.9,54.5,29.97,NE,45,0.0,1.0,95,0.00,,,0.00,7.0,meteohub,2013-04-14 11:17:00,
2013-04-14 07:22:00,56.1,54.7,29.98,NE,45,0.0,1.0,95,0.00,,,0.00,7.0,meteohub,2013-04-14 11:22:00,
2013-04-14 07:27:00,56.1,54.7,29.98,NE,45,0.0,1.0,95,0.00,,,0.00,0.0,meteohub,2013-04-14 11:27:00,
2013-04-14 07:32:00,56.3,54.9,29.98,NE,45,0.0,0.0,95,0.00,,,0.00,0.0,meteohub,2013-04-14 11:32:00,
2013-04-14 07:37:00,56.5,55.0,29.99,NE,45,0.0,0.0,95,0.00,,,0.00,0.0,meteohub,2013-04-14 11:37:00,
2013-04-14 07:42:00,56.5,55.0,29.99,NE,45,0.0,0.0,95,0.00,,,0.00,0.0,meteohub,2013-04-14 11:42:00,
2013-04-14 07:49:00,56.8,55.8,29.99,WSW,240,2.0,0.0,96,0.00,,,0.00,0.0,meteohub,2013-04-14 11:49:00,
2013-04-14 07:55:00,57.0,55.9,29.99,WSW,240,0.0,1.0,96,0.00,,,0.00,0.0,meteohub,2013-04-14 11:55:00,
2013-04-14 08:02:00,57.4,56.3,29.99,WSW,240,0.0,2.0,96,0.00,,,0.00,0.0,meteohub,2013-04-14 12:02:00,
2013-04-14 08:07:00,57.6,56.5,30.00,WSW,240,0.0,2.0,96,0.00,,,0.00,0.0,meteohub,2013-04-14 12:07:00,
2013-04-14 08:12:00,57.6,56.5,30.00,WSW,240,0.0,0.0,96,0.00,,,0.00,0.0,meteohub,2013-04-14 12:12:00,
2013-04-14 08:17:00,57.7,56.7,30.00,WSW,240,0.0,0.0,96,0.00,,,0.00,0.0,meteohub,2013-04-14 12:17:00,
2013-04-14 08:23:00,57.9,56.8,30.00,WSW,240,0.0,0.0,96,0.00,,,0.00,0.0,meteohub,2013-04-14 12:23:00,
2013-04-14 08:29:00,58.5,57.4,30.00,WSW,240,0.0,0.0,96,0.00,,,0.00,0.0,meteohub,2013-04-14 12:29:00,
2013-04-14 08:36:00,58.6,57.6,30.00,WSW,240,0.0,0.0,96,0.00,,,0.00,0.0,meteohub,2013-04-14 12:36:00,
2013-04-14 08:42:00,58.6,57.6,30.01,WSW,240,0.0,0.0,96,0.00,,,0.00,7.0,meteohub,2013-04-14 12:42:00,
2013-04-14 08:48:00,58.8,57.7,30.01,WSW,240,0.0,0.0,96,0.00,,,0.00,16.0,meteohub,2013-04-14 12:48:00,
2013-04-14 08:54:00,59.0,57.9,30.01,WSW,240,0.0,0.0,96,0.00,,,0.00,5.0,meteohub,2013-04-14 12:54:00,
2013-04-14 09:00:00,59.4,58.3,30.01,WSW,240,0.0,0.0,96,0.00,,,0.00,7.0,meteohub,2013-04-14 13:00:00,
2013-04-14 09:07:00,59.4,58.3,30.02,WSW,240,0.0,0.0,96,0.00,,,0.00,11.0,meteohub,2013-04-14 13:07:00,
2013-04-14 09:12:00,59.5,58.5,30.02,WSW,240,0.0,0.0,96,0.00,,,0.00,5.0,meteohub,2013-04-14 13:12:00,
2013-04-14 09:17:00,59.5,58.5,30.02,WSW,240,0.0,0.0,96,0.00,,,0.00,19.0,meteohub,2013-04-14 13:17:00,
2013-04-14 09:22:00,59.5,58.5,30.02,WSW,240,0.0,1.0,96,0.00,,,0.00,14.0,meteohub,2013-04-14 13:22:00,
2013-04-14 09:27:00,59.5,58.5,30.03,WSW,240,0.0,1.0,96,0.00,,,0.00,9.0,meteohub,2013-04-14 13:27:00,
2013-04-14 09:32:00,59.5,58.5,30.03,WSW,240,0.0,1.0,96,0.00,,,0.00,9.0,meteohub,2013-04-14 13:32:00,
2013-04-14 09:37:00,59.7,58.6,30.04,WSW,240,0.0,1.0,96,0.00,,,0.00,9.0,meteohub,2013-04-14 13:37:00,
2013-04-14 09:42:00,59.7,58.6,30.04,WSW,240,0.0,0.0,96,0.00,,,0.00,18.0,meteohub,2013-04-14 13:42:00,
2013-04-14 09:47:00,60.3,59.2,30.03,WSW,240,0.0,0.0,96,0.00,,,0.00,28.0,meteohub,2013-04-14 13:47:00,
2013-04-14 09:53:00,60.4,59.4,30.02,NE,34,0.0,1.0,96,0.00,,,0.00,40.0,meteohub,2013-04-14 13:53:00,
2013-04-14 10:00:00,60.4,59.4,30.01,NNE,23,0.0,3.0,96,0.00,,,0.00,5.0,meteohub,2013-04-14 14:00:00,
2013-04-14 10:06:00,60.4,59.4,30.01,ENE,67,1.0,3.0,96,0.00,,,0.00,7.0,meteohub,2013-04-14 14:06:00,
2013-04-14 10:12:00,60.6,59.5,29.99,East,80,0.0,3.0,96,0.00,,,0.00,21.0,meteohub,2013-04-14 14:12:00,
2013-04-14 10:18:00,61.0,59.9,29.99,ENE,64,1.0,4.0,96,0.00,,,0.00,39.0,meteohub,2013-04-14 14:18:00,
2013-04-14 10:25:00,61.5,60.4,29.99,NE,53,0.0,4.0,96,0.00,,,0.00,83.0,meteohub,2013-04-14 14:25:00,
2013-04-14 10:31:00,62.2,60.8,29.99,NE,53,0.0,4.0,95,0.00,,,0.00,113.0,meteohub,2013-04-14 14:31:00,
2013-04-14 10:37:00,63.0,61.5,29.99,NE,53,0.0,3.0,95,0.00,,,0.00,121.0,meteohub,2013-04-14 14:37:00,
2013-04-14 10:42:00,63.7,61.9,30.00,NE,53,0.0,3.0,94,0.00,,,0.00,160.0,meteohub,2013-04-14 14:42:00,
2013-04-14 10:47:00,64.6,62.4,30.01,NE,53,0.0,3.0,93,0.00,,,0.00,169.0,meteohub,2013-04-14 14:47:00,
2013-04-14 10:52:00,65.1,62.4,30.01,NE,55,0.0,3.0,91,0.00,,,0.00,218.0,meteohub,2013-04-14 14:52:00,
2013-04-14 10:59:00,66.4,63.3,30.01,NW,309,0.0,4.0,90,0.00,,,0.00,202.0,meteohub,2013-04-14 14:59:00,
2013-04-14 11:05:00,66.7,63.3,30.01,ENE,69,1.0,4.0,89,0.00,,,0.00,58.0,meteohub,2013-04-14 15:05:00,
2013-04-14 11:12:00,66.7,63.1,30.03,NNE,33,0.0,4.0,88,0.00,,,0.00,62.0,meteohub,2013-04-14 15:12:00,
2013-04-14 11:17:00,66.7,62.8,30.04,NNE,33,0.0,4.0,87,0.00,,,0.00,109.0,meteohub,2013-04-14 15:17:00,
2013-04-14 11:22:00,67.1,63.1,30.04,NNE,33,0.0,4.0,87,0.00,,,0.00,162.0,meteohub,2013-04-14 15:22:00,
2013-04-14 11:27:00,67.6,63.7,30.03,NNE,33,0.0,1.0,87,0.00,,,0.00,144.0,meteohub,2013-04-14 15:27:00,
2013-04-14 11:32:00,67.8,63.5,30.03,NNE,33,0.0,1.0,86,0.00,,,0.00,149.0,meteohub,2013-04-14 15:32:00,
2013-04-14 11:40:00,68.0,63.7,30.02,NNE,33,0.0,1.0,86,0.00,,,0.00,155.0,meteohub,2013-04-14 15:40:00,
2013-04-14 11:46:00,68.0,63.7,30.01,NNE,33,0.0,1.0,86,0.00,,,0.00,190.0,meteohub,2013-04-14 15:46:00,
2013-04-14 11:52:00,68.4,64.0,30.01,NNE,33,0.0,1.0,86,0.00,,,0.00,216.0,meteohub,2013-04-14 15:52:00,
2013-04-14 11:59:00,68.5,64.2,29.99,NNE,33,0.0,2.0,86,0.00,,,0.00,267.0,meteohub,2013-04-14 15:59:00,
2013-04-14 12:05:00,68.5,63.9,29.99,ENE,59,0.0,4.0,85,0.00,,,0.00,237.0,meteohub,2013-04-14 16:05:00,
2013-04-14 12:11:00,68.9,64.6,30.00,ENE,59,0.0,4.0,86,0.00,,,0.00,58.0,meteohub,2013-04-14 16:11:00,
2013-04-14 12:17:00,69.1,64.4,30.01,ENE,58,0.0,4.0,85,0.00,,,0.00,28.0,meteohub,2013-04-14 16:17:00,
2013-04-14 12:23:00,69.1,64.4,30.02,ENE,58,0.0,4.0,85,0.00,,,0.00,18.0,meteohub,2013-04-14 16:23:00,
2013-04-14 12:30:00,69.3,64.6,30.03,ENE,58,0.0,1.0,85,0.00,,,0.00,0.0,meteohub,2013-04-14 16:30:00,
2013-04-14 12:36:00,69.3,64.6,30.03,ENE,58,0.0,1.0,85,0.00,,,0.00,0.0,meteohub,2013-04-14 16:36:00,
2013-04-14 12:42:00,69.3,64.9,30.03,ENE,58,0.0,1.0,86,0.00,,,0.00,0.0,meteohub,2013-04-14 16:42:00,
2013-04-14 12:48:00,69.3,65.3,30.02,ENE,58,0.0,0.0,87,0.00,,,0.00,0.0,meteohub,2013-04-14 16:48:00,
2013-04-14 12:54:00,69.3,65.5,30.02,ENE,58,0.0,1.0,88,0.00,,,0.00,0.0,meteohub,2013-04-14 16:54:00,
2013-04-14 13:01:00,69.1,65.3,30.02,ENE,58,0.0,1.0,88,0.00,,,0.00,0.0,meteohub,2013-04-14 17:01:00,
2013-04-14 13:07:00,68.9,65.1,30.03,ENE,58,0.0,1.0,88,0.01,,,0.00,0.0,meteohub,2013-04-14 17:07:00,
2013-04-14 13:12:00,68.7,64.9,30.04,ENE,58,0.0,1.0,88,0.02,,,0.02,0.0,meteohub,2013-04-14 17:12:00,
2013-04-14 13:19:00,68.5,64.8,30.02,ENE,58,0.0,1.0,88,0.03,,,0.03,5.0,meteohub,2013-04-14 17:19:00,
2013-04-14 13:25:00,68.4,64.9,30.03,ENE,58,0.0,1.0,89,0.03,,,0.03,0.0,meteohub,2013-04-14 17:25:00,
2013-04-14 13:31:00,68.4,65.3,30.03,ENE,58,0.0,1.0,90,0.04,,,0.04,33.0,meteohub,2013-04-14 17:31:00,
2013-04-14 13:37:00,68.2,65.5,30.03,ENE,58,0.0,0.0,91,0.04,,,0.04,44.0,meteohub,2013-04-14 17:37:00,
2013-04-14 13:42:00,68.0,65.7,30.03,ENE,58,0.0,0.0,92,0.05,,,0.05,37.0,meteohub,2013-04-14 17:42:00,
2013-04-14 13:47:00,67.6,65.5,30.01,ENE,58,0.0,0.0,93,0.05,,,0.05,51.0,meteohub,2013-04-14 17:47:00,
2013-04-14 13:52:00,67.6,65.5,30.01,ENE,58,0.0,0.0,93,0.05,,,0.05,47.0,meteohub,2013-04-14 17:52:00,
2013-04-14 13:57:00,67.8,66.0,30.01,ENE,58,0.0,1.0,94,0.05,,,0.05,9.0,meteohub,2013-04-14 17:57:00,
2013-04-14 14:03:00,67.8,66.0,30.02,ENE,58,0.0,1.0,94,0.05,,,0.06,0.0,meteohub,2013-04-14 18:03:00,
2013-04-14 14:09:00,67.8,65.7,30.02,ENE,58,0.0,1.0,93,0.05,,,0.06,16.0,meteohub,2013-04-14 18:09:00,
2013-04-14 14:15:00,67.6,65.5,30.03,ENE,58,0.0,0.0,93,0.04,,,0.06,0.0,meteohub,2013-04-14 18:15:00,
2013-04-14 14:21:00,67.6,65.8,30.02,ENE,58,0.0,0.0,94,0.03,,,0.07,5.0,meteohub,2013-04-14 18:21:00,
2013-04-14 14:27:00,67.5,65.3,30.00,ENE,58,0.0,0.0,93,0.04,,,0.07,86.0,meteohub,2013-04-14 18:27:00,
2013-04-14 14:32:00,67.5,65.7,30.00,ENE,58,0.0,0.0,94,0.04,,,0.08,63.0,meteohub,2013-04-14 18:32:00,
2013-04-14 14:37:00,67.3,65.1,30.01,East,84,0.0,1.0,93,0.04,,,0.08,33.0,meteohub,2013-04-14 18:37:00,
2013-04-14 14:43:00,66.6,64.2,30.00,ENE,67,0.0,3.0,92,0.04,,,0.09,51.0,meteohub,2013-04-14 18:43:00,
2013-04-14 14:49:00,65.7,63.0,30.00,ESE,107,0.0,3.0,91,0.04,,,0.09,0.0,meteohub,2013-04-14 18:49:00,
2013-04-14 14:56:00,64.8,62.1,30.00,ENE,71,0.0,4.0,91,0.05,,,0.11,0.0,meteohub,2013-04-14 18:56:00,
2013-04-14 15:02:00,64.6,61.9,29.99,SSW,196,0.0,4.0,91,0.05,,,0.11,111.0,meteohub,2013-04-14 19:02:00,
2013-04-14 15:08:00,63.7,61.3,29.99,East,83,0.0,2.0,92,0.05,,,0.11,221.0,meteohub,2013-04-14 19:08:00,
2013-04-14 15:14:00,63.9,61.9,29.99,NE,53,0.0,2.0,93,0.06,,,0.12,174.0,meteohub,2013-04-14 19:14:00,
2013-04-14 15:20:00,64.0,62.1,29.98,NE,53,0.0,2.0,93,0.05,,,0.12,134.0,meteohub,2013-04-14 19:20:00,
2013-04-14 15:26:00,64.0,62.1,29.97,ENE,63,0.0,2.0,93,0.05,,,0.12,125.0,meteohub,2013-04-14 19:26:00,
2013-04-14 15:32:00,64.0,62.1,29.96,ENE,66,0.0,2.0,93,0.04,,,0.12,113.0,meteohub,2013-04-14 19:32:00,
2013-04-14 15:39:00,63.9,61.9,29.96,ENE,65,0.0,3.0,93,0.04,,,0.12,141.0,meteohub,2013-04-14 19:39:00,
2013-04-14 15:45:00,64.0,62.1,29.96,NE,51,1.0,2.0,93,0.03,,,0.12,63.0,meteohub,2013-04-14 19:45:00,
2013-04-14 15:51:00,64.2,62.2,29.97,ENE,59,0.0,2.0,93,0.03,,,0.12,54.0,meteohub,2013-04-14 19:51:00,
2013-04-14 15:57:00,64.2,62.2,29.96,ENE,59,0.0,2.0,93,0.01,,,0.14,90.0,meteohub,2013-04-14 19:57:00,
2013-04-14 16:02:00,64.2,62.2,29.95,ENE,59,0.0,2.0,93,0.05,,,0.16,77.0,meteohub,2013-04-14 20:02:00,
2013-04-14 16:07:00,64.2,62.2,29.96,ENE,59,0.0,2.0,93,0.05,,,0.16,53.0,meteohub,2013-04-14 20:07:00,
2013-04-14 16:12:00,64.2,62.2,29.95,ENE,59,0.0,2.0,93,0.06,,,0.18,51.0,meteohub,2013-04-14 20:12:00,
2013-04-14 16:19:00,64.0,62.1,29.93,East,89,0.0,9.0,93,0.08,,,0.20,81.0,meteohub,2013-04-14 20:19:00,
2013-04-14 16:25:00,63.3,61.0,29.93,ENE,64,1.0,9.0,92,0.08,,,0.20,134.0,meteohub,2013-04-14 20:25:00,
2013-04-14 16:32:00,63.1,61.2,29.92,ENE,65,0.0,9.0,93,0.08,,,0.20,148.0,meteohub,2013-04-14 20:32:00,
2013-04-14 16:37:00,63.1,61.2,29.92,SE,131,0.0,4.0,93,0.08,,,0.20,153.0,meteohub,2013-04-14 20:37:00,
2013-04-14 16:44:00,63.3,61.5,29.92,ENE,65,0.0,4.0,94,0.08,,,0.20,132.0,meteohub,2013-04-14 20:44:00,
2013-04-14 16:50:00,63.1,61.2,29.91,ENE,59,1.0,4.0,93,0.08,,,0.20,183.0,meteohub,2013-04-14 20:50:00,
2013-04-14 16:56:00,63.0,61.0,29.91,ENE,66,1.0,4.0,93,0.08,,,0.20,153.0,meteohub,2013-04-14 20:56:00,
2013-04-14 17:02:00,62.8,60.4,29.91,ENE,66,0.0,5.0,92,0.04,,,0.20,125.0,meteohub,2013-04-14 21:02:00,
2013-04-14 17:08:00,62.6,60.3,29.91,East,82,0.0,5.0,92,0.04,,,0.20,107.0,meteohub,2013-04-14 21:08:00,
2013-04-14 17:15:00,62.8,60.1,29.91,East,80,0.0,4.0,91,0.02,,,0.20,100.0,meteohub,2013-04-14 21:15:00,
2013-04-14 17:21:00,62.8,60.1,29.90,East,80,0.0,4.0,91,0.00,,,0.20,91.0,meteohub,2013-04-14 21:21:00,
2013-04-14 17:27:00,62.8,60.1,29.90,ENE,59,0.0,4.0,91,0.00,,,0.20,83.0,meteohub,2013-04-14 21:27:00,
2013-04-14 17:32:00,62.8,60.1,29.89,ENE,59,0.0,4.0,91,0.00,,,0.20,72.0,meteohub,2013-04-14 21:32:00,
2013-04-14 17:37:00,62.8,60.1,29.90,ENE,59,0.0,3.0,91,0.00,,,0.20,72.0,meteohub,2013-04-14 21:37:00,
2013-04-14 17:42:00,62.8,60.1,29.90,ENE,59,1.0,3.0,91,0.00,,,0.20,69.0,meteohub,2013-04-14 21:42:00,
2013-04-14 17:48:00,62.6,59.9,29.90,ENE,59,0.0,1.0,91,0.00,,,0.20,84.0,meteohub,2013-04-14 21:48:00,
2013-04-14 17:55:00,62.4,59.7,29.90,NE,46,0.0,3.0,91,0.00,,,0.20,40.0,meteohub,2013-04-14 21:55:00,
2013-04-14 18:01:00,62.4,59.7,29.90,ENE,77,0.0,3.0,91,0.00,,,0.20,30.0,meteohub,2013-04-14 22:01:00,
2013-04-14 18:07:00,62.2,59.5,29.91,NE,55,0.0,3.0,91,0.00,,,0.20,21.0,meteohub,2013-04-14 22:07:00,
2013-04-14 18:14:00,62.2,59.5,29.91,NNE,24,0.0,3.0,91,0.00,,,0.20,0.0,meteohub,2013-04-14 22:14:00,
2013-04-14 18:20:00,62.1,59.4,29.91,ENE,63,0.0,3.0,91,0.00,,,0.20,11.0,meteohub,2013-04-14 22:20:00,
2013-04-14 18:27:00,62.1,59.4,29.91,ENE,63,0.0,5.0,91,0.02,,,0.21,7.0,meteohub,2013-04-14 22:27:00,
2013-04-14 18:32:00,61.9,59.2,29.92,ENE,63,0.0,5.0,91,0.02,,,0.24,9.0,meteohub,2013-04-14 22:32:00,
2013-04-14 18:38:00,61.7,59.0,29.91,NE,46,0.0,5.0,91,0.06,,,0.24,11.0,meteohub,2013-04-14 22:38:00,
2013-04-14 18:45:00,61.2,58.5,29.90,ENE,61,0.0,4.0,91,0.10,,,0.29,23.0,meteohub,2013-04-14 22:45:00,
2013-04-14 18:51:00,61.0,58.6,29.90,ENE,78,0.0,4.0,92,0.10,,,0.32,18.0,meteohub,2013-04-14 22:51:00,
2013-04-14 18:57:00,60.8,58.5,29.90,NNE,15,0.0,4.0,92,0.12,,,0.32,12.0,meteohub,2013-04-14 22:57:00,
2013-04-14 19:02:00,60.6,58.3,29.90,ENE,65,0.0,2.0,92,0.13,,,0.33,11.0,meteohub,2013-04-14 23:02:00,
2013-04-14 19:07:00,60.6,58.3,29.90,ENE,67,0.0,2.0,92,0.13,,,0.33,9.0,meteohub,2013-04-14 23:07:00,
2013-04-14 19:13:00,60.4,58.5,29.89,NE,49,1.0,2.0,93,0.13,,,0.33,7.0,meteohub,2013-04-14 23:13:00,
2013-04-14 19:19:00,60.4,58.5,29.89,NNE,30,0.0,2.0,93,0.12,,,0.33,7.0,meteohub,2013-04-14 23:19:00,
2013-04-14 19:25:00,60.3,58.3,29.89,NNE,26,0.0,2.0,93,0.11,,,0.33,7.0,meteohub,2013-04-14 23:25:00,
2013-04-14 19:31:00,60.3,58.3,29.89,NNE,28,0.0,2.0,93,0.11,,,0.33,0.0,meteohub,2013-04-14 23:31:00,
2013-04-14 19:37:00,60.3,58.3,29.89,NNE,28,0.0,2.0,93,0.08,,,0.33,0.0,meteohub,2013-04-14 23:37:00,
2013-04-14 19:42:00,60.3,58.5,29.89,NNE,28,0.0,2.0,94,0.03,,,0.33,0.0,meteohub,2013-04-14 23:42:00,
2013-04-14 19:47:00,60.1,58.3,29.90,NNE,28,0.0,2.0,94,0.03,,,0.33,0.0,meteohub,2013-04-14 23:47:00,
2013-04-14 19:53:00,60.3,58.5,29.90,NNE,28,0.0,1.0,94,0.02,,,0.34,0.0,meteohub,2013-04-14 23:53:00,
2013-04-14 19:59:00,60.3,58.5,29.90,NNE,28,0.0,0.0,94,0.02,,,0.34,0.0,meteohub,2013-04-14 23:59:00,
2013-04-14 20:05:00,60.3,58.5,29.91,NNE,28,0.0,1.0,94,0.02,,,0.34,0.0,meteohub,2013-04-15 00:05:00,
2013-04-14 20:12:00,60.4,58.6,29.91,NNE,28,0.0,1.0,94,0.03,,,0.01,0.0,meteohub,2013-04-15 00:12:00,
2013-04-14 20:17:00,60.4,58.6,29.91,NNE,28,0.0,1.0,94,0.03,,,0.01,0.0,meteohub,2013-04-15 00:17:00,
2013-04-14 20:22:00,60.4,58.6,29.90,NNE,28,0.0,1.0,94,0.04,,,0.02,0.0,meteohub,2013-04-15 00:22:00,
2013-04-14 20:27:00,60.4,59.0,29.90,NNE,28,0.0,1.0,95,0.04,,,0.02,0.0,meteohub,2013-04-15 00:27:00,
2013-04-14 20:33:00,60.6,59.2,29.90,ENE,70,0.0,2.0,95,0.05,,,0.03,0.0,meteohub,2013-04-15 00:33:00,
2013-04-14 20:40:00,60.6,59.2,29.89,ENE,70,0.0,2.0,95,0.05,,,0.03,0.0,meteohub,2013-04-15 00:40:00,
2013-04-14 20:46:00,60.6,59.2,29.89,SSE,154,0.0,2.0,95,0.05,,,0.04,0.0,meteohub,2013-04-15 00:46:00,
2013-04-14 20:52:00,60.8,59.4,29.86,East,84,0.0,2.0,95,0.10,,,0.07,0.0,meteohub,2013-04-15 00:52:00,
2013-04-14 20:57:00,61.0,59.5,29.86,NE,38,0.0,5.0,95,0.10,,,0.10,0.0,meteohub,2013-04-15 00:57:00,
2013-04-14 21:02:00,61.2,60.1,29.86,SE,140,0.0,5.0,96,0.11,,,0.10,0.0,meteohub,2013-04-15 01:02:00,
2013-04-14 21:07:00,61.5,60.4,29.86,West,263,0.0,5.0,96,0.11,,,0.10,0.0,meteohub,2013-04-15 01:07:00,
2013-04-14 21:12:00,61.9,60.8,29.88,WNW,284,8.0,8.0,96,0.10,,,0.11,0.0,meteohub,2013-04-15 01:12:00,
2013-04-14 21:17:00,62.1,60.6,29.93,WNW,284,1.0,15.0,95,0.10,,,0.11,0.0,meteohub,2013-04-15 01:17:00,
2013-04-14 21:22:00,61.5,60.1,29.93,ESE,107,1.0,15.0,95,0.09,,,0.11,0.0,meteohub,2013-04-15 01:22:00,
2013-04-14 21:27:00,61.3,59.9,29.96,West,268,3.0,15.0,95,0.09,,,0.11,0.0,meteohub,2013-04-15 01:27:00,
2013-04-14 21:33:00,61.3,60.3,29.95,WNW,288,1.0,10.0,96,0.08,,,0.11,0.0,meteohub,2013-04-15 01:33:00,
2013-04-14 21:39:00,61.5,60.4,29.95,SW,226,0.0,10.0,96,0.08,,,0.11,0.0,meteohub,2013-04-15 01:39:00,
2013-04-14 21:45:00,61.7,60.6,29.96,SW,226,0.0,5.0,96,0.08,,,0.12,0.0,meteohub,2013-04-15 01:45:00,
2013-04-14 21:51:00,61.7,60.6,29.95,SW,226,0.0,5.0,96,0.08,,,0.12,0.0,meteohub,2013-04-15 01:51:00,
2013-04-14 21:57:00,61.9,60.8,29.96,SW,226,0.0,2.0,96,0.03,,,0.12,0.0,meteohub,2013-04-15 01:57:00,
2013-04-14 22:02:00,61.7,60.6,29.96,WSW,240,0.0,2.0,96,0.01,,,0.12,0.0,meteohub,2013-04-15 02:02:00,
2013-04-14 22:07:00,61.5,60.4,29.94,WSW,240,0.0,4.0,96,0.01,,,0.12,0.0,meteohub,2013-04-15 02:07:00,
2013-04-14 22:12:00,61.5,60.4,29.93,WSW,240,0.0,4.0,96,0.01,,,0.12,0.0,meteohub,2013-04-15 02:12:00,
2013-04-14 22:19:00,61.3,60.3,29.92,WSW,240,0.0,1.0,96,0.01,,,0.12,0.0,meteohub,2013-04-15 02:19:00,
2013-04-14 22:25:00,61.3,60.3,29.95,WSW,240,0.0,1.0,96,0.01,,,0.12,0.0,meteohub,2013-04-15 02:25:00,
2013-04-14 22:32:00,61.2,60.1,29.95,WSW,240,0.0,1.0,96,0.01,,,0.12,0.0,meteohub,2013-04-15 02:32:00,
2013-04-14 22:37:00,61.2,60.1,29.95,WSW,240,0.0,1.0,96,0.01,,,0.12,0.0,meteohub,2013-04-15 02:37:00,
2013-04-14 22:42:00,61.2,60.1,29.94,WSW,240,0.0,1.0,96,0.00,,,0.12,0.0,meteohub,2013-04-15 02:42:00,
2013-04-14 22:47:00,61.0,59.9,29.93,WSW,240,0.0,1.0,96,0.00,,,0.12,0.0,meteohub,2013-04-15 02:47:00,
2013-04-14 22:53:00,61.0,59.9,29.91,WSW,240,0.0,1.0,96,0.00,,,0.12,0.0,meteohub,2013-04-15 02:53:00,
2013-04-14 22:59:00,61.0,59.9,29.91,WSW,240,0.0,1.0,96,0.00,,,0.12,0.0,meteohub,2013-04-15 02:59:00,
2013-04-14 23:06:00,60.6,59.5,29.90,NE,52,0.0,2.0,96,0.00,,,0.12,0.0,meteohub,2013-04-15 03:06:00,
2013-04-14 23:12:00,60.6,59.5,29.89,ENE,74,0.0,2.0,96,0.00,,,0.12,0.0,meteohub,2013-04-15 03:12:00,
2013-04-14 23:17:00,60.6,59.5,29.88,ENE,74,0.0,3.0,96,0.00,,,0.12,0.0,meteohub,2013-04-15 03:17:00,
2013-04-14 23:22:00,60.6,59.5,29.89,ENE,74,0.0,3.0,96,0.00,,,0.12,0.0,meteohub,2013-04-15 03:22:00,
2013-04-14 23:27:00,60.6,59.5,29.89,ENE,74,0.0,3.0,96,0.00,,,0.12,0.0,meteohub,2013-04-15 03:27:00,
2013-04-14 23:32:00,60.6,59.5,29.89,ENE,74,0.0,3.0,96,0.00,,,0.12,0.0,meteohub,2013-04-15 03:32:00,
2013-04-14 23:37:00,60.6,59.5,29.89,ENE,74,0.0,1.0,96,0.00,,,0.12,0.0,meteohub,2013-04-15 03:37:00,
2013-04-14 23:43:00,60.6,59.5,29.88,ENE,74,0.0,1.0,96,0.00,,,0.12,0.0,meteohub,2013-04-15 03:43:00,
2013-04-14 23:49:00,60.6,59.5,29.86,ENE,74,0.0,1.0,96,0.00,,,0.12,0.0,meteohub,2013-04-15 03:49:00,
2013-04-14 23:55:00,60.8,59.7,29.86,ENE,74,0.0,0.0,96,0.00,,,0.12,0.0,meteohub,2013-04-15 03:55:00,